Temp
21 21 21 19 18 15 18 19 19 21 22 21 21 21 21 20 22 21 20 19 19 18 19 20 19 19 20 20 18 21 21 21 21 20 19 18 18 18 17 17 17 17 17 16 16 16 15 15 14
21 21 20 14 16 16 17 18 20 20 22 20 21 20 20 21 18 18 19 20 19 19 18 18 19 20 21 21 20 19 19 19 20 19 19 18 17 17 17 16 16 16 16 16 16 16 15 14 14
21 20 17 14 13 17 17 19 20 21 21 21 21 19 19 20 19 18 18 18 18 18 18 17 18 19 20 21 20 18 17 18 18 19 20 18 17 17 16 16 16 16 17 17 16 15 15 15 16
21 18 14 17 19 18 19 20 19 20 20 19 19 19 18 18 19 18 19 18 18 17 17 17 18 18 18 20 20 20 19 19 19 19 19 18 17 16 16 16 16 16 16 16 15 15 16 16 16
19 14 15 17 18 18 18 19 20 20 22 20 19 20 18 18 18 17 17 18 19 17 17 16 18 18 18 17 18 18 18 18 18 18 17 17 16 16 16 16 16 16 16 16 16 16 16 16 16
16 14 16 17 18 19 19 19 21 22 21 20 19 19 19 16 17 16 16 17 18 19 20 16 17 18 17 18 17 18 18 17 17 18 18 17 16 16 16 16 16 16 17 17 17 16 16 16 16
17 15 17 18 18 19 21 22 21 21 20 19 19 19 18 16 16 16 15 16 16 17 17 16 17 16 17 17 18 17 17 18 17 17 17 17 17 16 15 15 16 17 17 17 16 16 16 16 16
15 15 18 17 18 19 20 22 21 20 19 18 18 19 19 16 16 15 16 16 16 16 18 18 17 17 16 17 16 18 18 18 17 17 17 18 16 16 15 16 16 16 17 17 16 16 16 16 15
16 16 16 18 19 21 21 22 20 19 18 17 17 18 17 16 15 15 15 15 15 15 15 17 16 15 15 15 16 16 16 17 17 16 17 17 16 16 16 16 17 16 16 17 16 16 16 15 15
17 15 17 18 19 21 21 21 21 19 18 18 17 17 16 16 15 15 15 15 15 14 15 15 14 14 14 14 15 15 15 16 16 16 16 17 17 17 16 16 16 16 17 17 17 16 15 16 15
17 18 19 20 19 19 20 21 19 18 18 18 18 17 16 15 15 15 15 15 15 14 15 14 15 14 14 14 14 14 14 14 16 15 15 17 17 16 16 15 16 16 17 17 17 17 16 16 16
20 19 20 21 21 21 21 21 20 17 20 18 18 16 16 15 14 15 14 14 14 14 14 14 14 14 13 13 16 14 14 14 15 16 16 16 16 16 16 16 16 17 17 16 17 16 16 16 15
20 20 21 20 20 19 21 20 20 18 18 17 16 16 16 16 14 14 14 13 14 14 14 13 13 12 13 14 13 14 14 14 15 16 16 16 17 16 16 16 16 16 16 17 16 16 16 16 15
21 21 20 19 19 20 21 20 20 19 16 17 17 15 16 16 14 13 13 13 13 13 13 13 13 12 12 14 13 13 14 14 15 18 17 17 17 16 16 16 16 16 16 17 16 16 16 16 15
21 20 19 20 21 22 19 20 17 18 16 17 17 14 14 13 13 13 13 13 13 12 13 13 12 12 12 12 13 13 13 14 16 17 18 17 17 17 17 16 16 16 17 16 16 16 16 15 15
21 19 19 21 21 22 21 20 20 16 16 16 16 14 13 13 13 13 13 12 12 12 12 12 12 12 12 11 11 12 13 14 16 17 17 17 17 17 17 16 16 16 16 15 16 16 15 15 15
17 18 18 19 21 21 21 20 20 15 16 16 15 14 13 14 14 13 13 12 12 12 12 12 12 12 12 12 12 13 13 15 16 17 17 17 17 17 16 16 16 16 16 15 15 15 16 15 15
17 18 18 18 20 20 19 18 19 15 15 15 15 13 12 12 14 13 12 12 12 12 12 12 12 12 12 12 12 13 13 15 15 16 16 17 17 17 16 16 16 15 15 15 15 15 15 15 15
18 19 18 18 20 21 19 18 19 16 14 14 14 13 12 11 14 13 12 12 11 11 11 12 11 11 11 12 13 13 13 15 16 16 17 17 16 16 16 16 16 15 16 15 15 15 15 15 15
19 18 18 18 20 19 19 19 19 17 15 15 14 13 12 11 13 13 12 11 11 11 11 11 11 11 11 12 12 13 14 15 15 15 15 16 16 16 16 16 15 16 15 15 15 15 14 14 14
17 18 18 19 18 19 19 18 20 20 16 15 14 14 13 12 12 13 13 11 11 11 11 11 11 11 12 12 13 13 14 14 14 14 16 15 15 16 16 15 16 16 16 15 15 15 15 15 14
17 18 19 19 18 17 20 17 19 20 19 16 15 13 13 12 12 12 13 12 11 11 11 11 11 11 12 13 13 13 14 14 14 14 15 14 15 15 16 16 16 16 15 16 16 16 15 15 14
19 19 18 19 18 18 19 17 18 20 19 19 16 15 14 13 12 12 12 12 12 12 11 11 11 11 12 13 12 13 14 15 15 15 15 15 15 16 16 16 16 16 16 15 15 15 15 15 14
20 20 19 18 17 16 18 18 18 19 19 21 20 16 14 14 13 12 12 12 12 11 11 11 11 11 11 11 12 13 14 14 15 15 15 16 16 16 17 17 16 15 16 15 15 15 15 14 14
19 18 16 17 16 16 18 18 20 21 20 20 20 18 16 14 14 12 12 12 11 10 10 10 10 10 11 11 12 13 13 14 15 15 15 15 16 16 16 16 16 15 16 16 15 15 14 14 14
18 18 15 18 16 17 18 17 19 20 20 20 19 19 16 14 14 14 13 12 11 10 10 10 10 10 11 11 11 12 12 13 13 13 14 14 15 16 16 16 16 16 16 16 15 14 14 14 13
19 17 19 17 16 16 17 18 20 21 21 21 18 18 16 15 14 14 14 13 12 11 10 10 10 11 11 11 11 11 12 12 12 13 13 14 14 15 15 16 16 16 15 14 14 13 13 12 12
19 19 18 15 17 17 17 18 19 21 21 21 20 18 17 15 14 14 14 14 13 13 12 12 12 12 12 12 12 12 12 12 12 13 13 13 14 15 15 14 14 14 14 14 14 13 13 13 12
18 19 19 18 15 17 17 16 17 21 21 20 19 18 17 16 15 15 15 15 14 13 13 12 12 12 12 12 12 12 13 13 13 13 13 14 14 14 14 14 14 14 14 13 12 12 12 12 13
19 19 19 18 17 15 16 19 20 19 20 20 20 19 18 16 15 15 15 15 14 14 13 13 12 12 13 13 14 14 14 13 13 13 14 14 14 13 13 13 13 14 14 12 12 12 12 12 12
Height
771 772 773 776 802 811 811 801 788 783 778 771 769 772 772 768 768 783 759 757 758 759 756 759 764 768 769 772 775 773 773 776 779 784 793 803 806 808 815 816 816 819 820 823 825 830 830 833 833
771 773 773 787 813 823 811 794 789 780 768 768 766 767 770 769 763 759 757 756 756 758 759 758 757 762 768 773 773 775 776 781 780 785 794 800 808 811 816 819 820 822 824 828 829 834 835 836 834
772 772 782 804 823 816 812 787 780 770 765 766 767 765 766 764 759 757 757 756 756 758 760 762 761 759 764 770 771 774 779 782 786 784 791 800 809 815 820 820 823 823 824 829 831 835 838 838 838
772 775 789 804 801 795 788 776 774 772 765 767 767 770 763 757 758 756 754 756 756 756 760 761 762 764 767 769 768 772 778 781 785 788 792 799 810 816 823 824 825 826 828 828 831 836 838 841 842
772 784 805 805 799 788 782 772 769 769 762 765 766 765 763 756 755 754 752 751 753 755 756 758 760 760 768 772 772 771 773 781 785 786 793 802 809 817 825 825 827 827 829 830 831 835 840 844 845
784 791 809 809 798 784 777 768 764 762 761 763 766 765 759 755 754 752 751 749 749 750 753 758 761 765 768 771 774 775 772 782 789 779 790 801 808 818 825 826 827 829 831 830 833 837 842 844 846
785 798 803 800 797 786 771 760 764 761 760 761 759 764 757 755 752 752 751 750 749 750 752 758 759 764 767 773 775 776 773 777 788 789 788 799 808 819 826 828 830 831 831 833 836 839 843 846 848
781 792 797 798 796 790 766 759 757 760 761 755 755 760 756 753 753 752 751 751 751 750 750 754 759 760 762 769 772 775 777 778 788 790 792 793 808 819 824 831 834 834 834 836 839 841 844 849 852
775 798 806 791 789 774 758 761 756 755 759 759 752 748 752 754 756 756 754 753 751 751 753 751 755 757 762 766 766 773 780 784 789 797 793 797 809 819 826 831 834 835 837 839 842 841 844 850 854
781 799 789 774 771 767 757 759 755 758 758 757 751 750 751 752 755 756 756 753 751 751 754 754 756 757 758 759 765 764 777 785 792 798 797 796 810 820 829 832 834 837 839 842 844 844 846 848 855
778 784 772 763 761 761 759 755 752 757 760 749 748 748 751 752 755 756 755 754 752 751 752 754 754 758 758 755 758 768 775 786 791 797 798 801 812 821 830 833 836 838 841 844 844 846 849 849 854
773 767 765 758 753 753 754 748 751 754 743 745 742 745 749 752 754 755 754 754 753 752 751 755 754 756 756 748 745 760 768 783 789 795 798 804 810 821 829 833 838 838 842 845 845 848 851 852 856
768 762 757 753 753 752 746 748 750 746 742 745 745 747 750 751 754 755 754 754 753 752 752 754 755 758 757 752 746 756 768 781 791 796 803 808 812 822 829 832 838 841 844 846 849 850 852 854 857
756 756 757 751 748 747 746 745 746 734 738 744 746 750 749 751 754 756 756 754 754 752 753 754 756 759 760 758 758 762 774 782 796 801 804 811 814 824 828 832 838 842 845 847 850 848 851 855 858
753 762 758 748 743 742 744 749 750 734 738 742 746 750 751 752 751 753 755 755 754 753 754 755 759 763 766 767 771 775 782 789 795 801 807 812 819 825 827 834 838 842 844 850 849 848 851 855 859
759 762 773 748 744 740 742 756 731 737 737 740 744 751 752 753 753 754 754 754 755 755 756 758 761 765 769 771 775 780 785 791 797 803 810 813 821 826 826 835 837 844 847 850 849 847 852 855 857
773 777 773 761 742 742 744 750 732 738 742 742 744 748 752 753 753 753 753 754 754 757 757 760 762 766 769 774 778 782 787 792 796 802 809 816 820 825 830 835 837 844 846 850 848 849 852 854 856
777 774 770 769 750 747 750 748 730 737 739 742 744 747 751 753 753 752 754 754 755 758 760 761 764 768 773 777 782 786 791 795 800 806 812 815 821 826 830 835 838 842 844 848 849 849 852 853 854
762 763 766 760 749 750 748 749 732 737 740 741 744 745 749 752 751 753 754 754 756 758 761 763 765 769 773 779 783 789 792 796 802 807 813 818 823 827 832 835 838 839 841 846 848 848 850 852 855
758 765 766 756 745 751 745 742 729 729 733 734 739 740 743 749 749 752 753 755 756 758 762 764 768 771 774 778 783 789 794 798 803 808 813 818 823 826 830 832 834 837 839 843 846 846 848 850 851
761 764 762 760 753 745 745 746 732 722 728 729 731 732 736 742 747 749 751 753 756 757 761 764 768 771 774 779 785 790 795 799 803 807 810 817 821 824 826 829 831 832 835 839 841 844 844 845 848
761 749 751 754 763 773 746 769 738 722 721 726 728 731 730 735 741 745 747 749 750 755 762 765 766 771 775 778 783 789 790 794 799 804 811 815 817 820 822 825 826 828 832 834 835 838 840 842 844
744 740 750 751 760 760 754 769 736 722 723 714 718 722 724 728 733 737 741 744 750 756 760 762 765 770 773 779 782 785 791 793 798 803 809 810 813 815 819 819 821 824 828 829 832 834 835 838 839
731 740 745 752 761 775 755 756 741 731 719 708 704 712 718 723 727 732 737 744 747 751 755 757 763 767 773 774 777 781 786 790 795 797 801 804 806 808 810 813 817 820 822 824 826 829 831 832 832
735 750 770 772 775 767 744 753 728 710 707 704 700 702 706 714 722 728 732 738 743 747 752 755 760 762 767 771 776 776 782 788 790 792 796 799 801 803 805 808 812 815 817 819 821 822 823 825 825
736 743 769 764 769 757 744 751 728 700 697 694 694 694 702 708 712 718 724 731 737 742 746 750 753 759 762 766 771 771 779 784 787 790 792 795 797 798 802 804 807 808 810 811 813 815 815 815 816
729 740 730 750 756 761 747 729 709 694 691 691 695 695 700 701 705 708 716 723 729 734 737 741 747 752 756 759 764 770 775 779 782 785 789 790 792 794 796 800 800 802 804 805 806 805 805 805 801
713 717 741 753 756 758 748 738 727 707 698 692 693 695 693 699 703 706 710 713 718 724 731 736 740 743 748 754 758 763 768 772 776 779 781 783 786 788 791 794 796 797 797 795 795 796 799 797 798
720 720 722 727 740 742 748 739 712 700 694 694 692 692 690 693 696 697 700 705 712 719 723 728 733 739 743 748 753 757 760 763 768 771 774 776 779 782 784 786 787 789 789 787 789 789 791 791 794
708 710 711 727 733 737 735 717 689 692 693 691 688 687 686 688 689 691 697 701 706 709 714 718 725 730 732 738 744 745 748 753 757 759 762 768 770 773 774 776 778 780 778 778 780 782 783 784 786
Wind_Speed
4 3 2 4 4 5 3 5 2 4 1 2 3 1 4 1 2 3 2 3 6 17 25 28 27 27 32 33 36 41 42 45 44 44 40 34 34 34 34 35 36 36 34 32 32 29 29 27 26
6 4 4 2 4 3 5 4 5 6 2 4 3 2 3 5 3 5 3 5 13 18 24 29 33 31 31 38 38 40 43 43 45 44 39 35 33 34 34 34 35 35 33 29 29 25 23 25 26
5 3 3 4 3 3 4 5 7 4 6 3 1 1 2 4 2 3 1 6 10 21 26 24 28 34 36 38 37 39 38 41 41 42 39 35 34 34 33 35 35 35 33 28 25 23 25 25 25
3 5 4 4 3 5 6 7 7 5 4 3 0 5 3 2 2 4 12 10 10 19 19 25 29 31 34 39 41 42 41 41 40 38 37 38 36 33 32 35 35 33 30 28 26 27 28 26 26
5 3 4 1 4 4 4 7 4 5 3 4 4 4 4 1 7 7 8 9 12 21 14 12 26 31 33 36 38 43 43 41 43 40 39 39 38 33 33 35 34 32 30 28 28 30 29 27 26
4 3 3 2 5 5 5 7 3 4 1 1 2 1 4 3 7 7 8 8 12 20 17 18 17 29 30 32 39 41 43 42 42 45 43 43 38 35 33 35 34 32 29 27 29 31 29 28 28
6 3 4 2 4 6 4 2 3 4 3 5 1 3 1 3 4 5 6 5 8 16 14 13 15 24 19 23 29 37 44 45 40 43 47 44 41 35 33 34 34 31 29 28 30 32 30 28 27
5 4 2 3 2 7 5 2 1 6 7 2 6 6 5 2 2 3 2 2 7 15 17 14 13 16 18 26 24 31 35 41 42 44 46 46 43 37 35 34 32 30 30 30 32 33 29 26 25
4 3 2 4 4 6 7 2 2 0 1 4 6 4 4 3 2 2 2 4 12 17 22 13 17 16 19 24 27 27 31 34 39 41 46 46 42 37 36 36 33 31 30 30 31 31 28 26 24
4 3 8 6 5 6 12 5 5 2 2 6 5 2 5 6 6 5 4 5 9 17 20 15 16 14 17 21 32 40 38 36 36 37 42 47 41 38 36 35 34 31 29 29 29 29 29 28 23
5 6 4 6 10 6 5 4 8 5 5 10 5 4 5 4 3 4 6 7 9 14 19 18 17 13 6 16 33 32 45 43 36 35 40 45 41 38 34 34 35 32 28 29 29 27 26 24 21
2 8 5 7 4 3 3 2 3 7 6 5 4 7 5 5 4 5 5 6 12 16 17 21 16 13 9 14 45 40 45 41 36 36 41 44 43 37 35 34 33 32 27 27 24 25 23 21 19
5 6 5 9 9 8 3 9 5 9 3 6 9 8 6 4 2 2 5 5 8 12 17 20 20 17 21 27 33 44 40 39 35 37 41 42 41 39 35 33 32 31 27 26 25 23 21 20 19
5 4 9 9 8 6 5 1 2 5 8 7 8 6 6 5 5 5 5 5 8 10 16 19 21 19 27 33 35 40 41 39 37 39 39 40 41 38 35 32 30 28 25 24 24 22 19 18 17
4 5 7 6 3 5 6 5 9 4 6 7 7 7 5 4 5 5 8 7 7 10 15 19 22 24 26 32 40 41 37 38 31 31 35 36 37 37 34 31 29 26 23 22 21 20 18 17 15
2 4 4 4 3 2 6 8 7 4 8 8 6 8 6 3 4 4 8 7 7 11 10 20 22 25 25 21 26 28 31 38 37 36 34 37 37 35 33 31 26 24 22 21 20 19 17 15 13
4 3 4 8 4 2 2 9 1 4 3 6 5 7 7 4 5 4 8 8 7 10 12 18 24 24 27 25 27 27 23 29 36 36 35 30 33 33 33 30 26 24 21 19 17 17 15 16 14
6 4 4 7 3 4 5 12 11 7 7 8 5 6 7 7 7 6 8 10 9 11 14 16 22 28 28 23 24 27 21 25 29 29 29 32 26 29 30 28 27 25 21 19 17 15 15 15 14
4 3 3 8 5 4 9 7 15 6 5 8 7 7 7 7 7 8 9 13 13 13 16 18 21 25 31 27 26 28 24 26 33 32 32 31 34 34 31 27 25 23 21 20 19 17 17 16 16
4 4 8 10 6 6 11 14 12 4 5 8 8 8 8 7 9 9 11 13 16 15 16 18 23 27 27 28 29 22 26 27 30 30 30 30 31 30 28 26 26 23 21 21 22 21 20 17 18
6 10 5 8 7 5 4 7 6 2 3 5 7 6 6 11 13 12 11 13 14 17 17 18 21 28 26 31 25 15 22 25 24 25 30 26 27 27 26 25 23 20 22 24 24 25 25 20 20
9 9 9 6 3 4 4 6 5 6 7 6 8 9 9 9 8 8 13 14 13 14 19 19 20 25 29 35 30 23 24 22 22 31 33 28 25 25 24 24 19 17 24 26 26 27 28 27 23
9 7 8 5 5 2 3 2 7 2 7 9 10 14 13 11 12 12 12 16 18 20 22 24 22 24 27 35 30 29 22 26 30 29 28 29 26 24 22 19 18 25 27 28 29 29 31 33 30
3 3 5 2 2 3 7 6 6 3 6 5 4 9 13 14 12 10 15 16 16 18 20 24 27 28 29 34 35 34 33 29 30 30 30 30 29 29 26 25 29 29 28 30 31 32 35 35 34
6 5 2 2 1 5 5 3 10 5 7 7 9 9 12 14 15 14 14 16 17 22 23 24 31 32 34 35 37 38 35 36 35 37 35 33 34 33 35 32 31 31 30 30 34 36 37 36 36
9 10 5 6 4 4 4 6 6 8 7 9 8 6 7 12 14 16 17 22 25 27 27 25 29 29 32 35 36 36 37 37 37 34 34 36 39 41 38 35 33 33 33 34 34 35 37 38 36
5 8 8 4 1 2 4 6 8 7 8 5 6 7 9 13 15 17 16 23 27 30 33 32 30 31 31 35 35 36 39 38 36 37 37 38 39 36 34 35 35 35 34 35 37 36 36 33 33
9 6 3 1 5 5 4 4 5 6 8 6 4 9 8 7 10 12 14 21 25 28 29 34 35 36 35 37 37 37 38 40 39 36 38 40 40 38 37 36 35 34 34 36 33 33 29 25 26
3 9 3 5 5 6 2 5 8 10 9 9 8 9 8 8 11 13 14 21 23 23 30 33 36 33 34 35 35 35 37 39 40 40 40 41 42 43 41 39 39 36 36 37 32 30 26 24 31
4 7 12 10 4 3 4 10 4 9 7 6 9 9 6 6 8 8 7 13 20 25 28 32 31 34 38 38 39 44 45 41 41 43 46 43 44 41 38 39 39 36 36 38 32 34 28 27 32
Wind_Direction
143 150 115 48 56 68 286 263 279 281 248 174 254 289 246 311 215 222 298 218 197 177 176 182 179 177 175 167 157 159 158 155 151 149 150 149 147 145 142 136 131 130 128 128 122 118 116 115 113
132 122 69 77 81 50 281 262 234 234 219 286 221 197 244 264 244 277 333 331 211 191 182 186 180 179 174 165 157 155 153 152 152 151 150 150 149 147 140 136 132 131 128 126 123 121 118 118 115
123 83 84 90 113 169 223 233 248 241 228 218 255 185 199 232 251 263 80 353 228 190 184 180 178 173 170 169 160 152 147 148 150 152 153 152 151 147 145 139 137 134 131 133 130 129 126 122 116
132 24 37 88 232 246 205 248 236 300 262 230 161 280 255 216 241 275 289 302 233 199 195 184 178 169 170 170 166 162 159 157 155 153 152 151 149 146 146 141 138 136 134 134 130 132 132 123 117
60 60 58 24 262 265 255 270 258 221 226 155 170 252 248 228 299 304 306 267 233 217 214 228 197 169 170 168 162 163 160 160 158 152 149 150 147 147 149 143 142 140 141 139 137 135 133 125 118
45 97 66 249 253 269 263 246 252 217 175 122 237 267 241 191 330 309 311 288 234 212 225 254 206 190 175 175 170 166 159 161 161 154 154 153 147 149 150 148 147 148 140 137 143 141 135 127 120
122 90 205 241 275 302 248 287 241 256 192 245 141 248 265 274 328 328 323 300 226 194 193 237 224 208 193 195 193 169 161 160 160 157 155 155 152 151 151 149 153 144 137 134 144 143 137 129 123
113 94 157 248 227 271 247 263 216 173 257 111 168 231 258 232 221 190 306 235 213 192 162 181 209 225 214 204 200 180 168 162 164 160 157 151 154 157 154 153 148 143 132 137 141 142 136 131 125
131 67 225 241 188 250 263 276 173 19 286 256 209 189 113 146 179 173 175 170 177 177 185 182 214 223 202 194 214 187 181 166 161 163 157 151 155 157 154 149 148 145 140 136 141 142 138 135 129
109 147 225 208 203 256 285 202 212 190 211 259 257 188 146 155 197 207 219 191 156 174 191 200 192 193 206 203 203 177 166 163 171 163 155 154 157 156 151 146 148 146 137 136 139 143 144 137 138
173 213 219 253 236 228 259 277 169 166 258 229 201 173 172 135 165 198 225 220 191 186 193 190 188 196 193 233 204 180 172 169 173 158 157 157 157 156 151 144 145 144 142 138 138 141 147 139 142
183 241 214 276 227 278 249 217 246 178 230 35 115 142 154 168 202 211 235 223 188 184 185 195 182 180 128 88 199 183 160 169 173 168 160 160 159 158 157 150 148 148 147 141 138 142 143 142 146
198 260 244 248 280 260 269 244 234 247 196 104 113 115 164 188 204 142 228 215 199 177 182 187 175 161 129 118 113 145 145 159 166 167 167 167 161 163 162 155 153 151 149 147 146 141 141 145 149
208 249 280 282 270 249 212 257 77 272 144 149 126 143 183 175 182 164 203 204 197 175 171 178 172 164 139 128 131 132 148 154 174 176 169 171 167 169 163 160 162 158 155 154 154 144 142 150 154
230 291 311 277 251 236 161 294 232 207 171 173 145 139 151 199 173 202 204 196 191 184 160 162 169 160 150 138 143 150 159 163 180 172 174 172 174 173 167 169 169 166 159 161 155 143 143 148 155
309 74 352 283 270 311 135 277 312 200 172 200 158 143 161 187 209 191 178 154 177 191 159 145 161 153 155 150 152 153 162 176 178 176 183 179 179 179 174 178 171 171 168 171 161 148 152 158 162
346 229 229 310 297 111 172 279 161 138 264 243 193 153 147 146 220 182 157 166 155 177 154 150 152 159 150 151 158 161 170 183 179 179 177 187 186 182 182 183 175 180 177 180 169 160 169 171 171
203 217 246 250 306 346 260 266 289 175 188 248 217 166 155 172 208 189 146 158 158 172 168 165 159 168 166 163 166 172 179 180 176 183 184 181 194 191 191 188 186 186 186 191 187 178 183 190 184
157 174 232 265 256 318 277 280 285 167 202 236 230 185 179 169 194 189 163 153 154 169 166 173 170 164 171 169 167 171 181 181 180 187 192 197 193 195 194 192 192 194 198 205 201 193 200 197 198
171 244 264 286 288 190 301 299 291 189 224 207 202 218 179 154 179 193 171 164 161 162 175 172 177 176 169 166 167 167 182 181 183 188 185 195 196 195 194 198 203 203 204 213 215 211 210 212 204
199 214 228 228 347 277 273 295 294 279 216 182 204 219 178 173 178 188 185 180 168 164 178 181 182 179 174 172 169 164 169 177 176 178 173 202 201 198 196 202 205 207 218 221 225 223 224 219 211
218 194 230 253 65 248 69 288 278 273 281 203 197 210 204 185 168 175 190 190 175 176 192 190 189 184 182 178 181 191 182 178 178 181 195 201 200 200 205 209 215 225 229 231 234 232 231 230 218
232 155 195 212 206 330 273 274 268 318 279 258 202 202 206 191 184 182 188 195 190 190 192 196 192 194 192 189 192 196 195 191 197 201 209 210 209 207 216 223 230 233 235 239 240 238 236 235 232
118 153 207 120 142 231 219 194 272 244 229 279 251 195 190 186 184 189 189 187 189 195 194 198 202 194 193 194 199 201 205 202 204 214 221 223 227 226 232 238 238 239 243 244 245 246 242 240 237
169 100 289 311 198 225 205 189 248 251 250 231 250 225 194 177 178 179 183 189 186 197 198 195 199 202 202 201 207 208 214 218 221 223 228 232 233 236 238 241 244 246 254 258 252 249 247 247 246
201 175 165 202 202 226 137 233 251 239 254 258 245 242 163 175 182 188 185 186 191 195 197 197 197 202 205 207 211 212 219 224 225 229 231 238 241 244 247 246 252 256 262 262 259 253 249 252 254
188 197 189 102 49 67 229 283 305 291 311 308 281 171 191 186 185 192 186 188 187 193 195 197 198 203 205 208 212 217 221 224 228 232 236 241 246 248 249 253 261 265 264 261 259 258 261 260 255
187 174 114 359 189 229 258 249 221 300 297 305 268 234 217 179 180 184 190 194 194 195 193 199 201 202 204 209 213 215 220 225 226 230 235 238 243 250 256 261 262 264 265 263 258 256 255 260 279
156 220 198 171 165 190 200 247 207 226 250 267 263 247 234 203 189 193 199 196 192 190 195 199 202 203 205 208 212 215 222 228 231 233 238 241 246 250 253 253 255 257 267 264 262 248 235 251 244
306 243 213 224 228 227 217 237 213 218 225 214 252 269 259 222 208 205 187 174 184 193 197 199 202 204 209 211 215 222 224 223 225 228 233 237 245 251 249 251 250 251 254 257 254 241 239 238 239